Hourly Data Report for October 27, 2016

All times are specified in Local Standard Time (LST). Add 1 hour to adjust for Daylight Saving Time where and when it is observed.

BATHURST A
NEW BRUNSWICK

47°37'47.000" N
65°44'20.000" W
58.80 m
8100505
71574
ZBF

Download Data

Hourly Data (October 2016)
Hourly Data Report for October 27, 2016
Temp Definition
°C
Dew Point Temp Definition
°C
Rel Hum Definition
%
Wind Dir Definition
10's deg

Wind Spd Definition
km/h
Visibility Definition
km
Stn Press Definition
kPa
Hmdx Definition


Wind Chill Definition


Weather Definition


TIME
00:00 Legend Double Dagger 1.6 0.3 91 4 5 12.9 102.34     Rain Showers
01:00 Legend Double Dagger 0.7 -0.3 93 35 5 8.1 102.41     Snow Showers
02:00 Legend Double Dagger 0.8 -0.4 92 34 6 12.9 102.45     Snow Showers
03:00 Legend Double Dagger 0.4 -1.1 90 34 7 16.1 102.46     LegendNANA
04:00 Legend Double Dagger 0.3 -1.3 89 33 6 16.1 102.47     LegendNANA
05:00 Legend Double Dagger 0.1 -1.7 88 32 5 24.1 102.50     Cloudy
06:00 Legend Double Dagger 0.1 -1.7 88 31 5 19.3 102.52     LegendNANA
07:00 Legend Double Dagger -0.1 -2.0 87 30 6 24.1 102.56   -2 LegendNANA
08:00 Legend Double Dagger 0.1 -2.5 83 31 6 24.1 102.62     Mostly Cloudy
09:00 Legend Double Dagger 1.1 -1.6 82 33 4 24.1 102.65     LegendNANA
10:00 Legend Double Dagger 2.1 -2.4 72 34 7 24.1 102.69     LegendNANA
11:00 Legend Double Dagger 2.5 -2.4 70 31 7 24.1 102.70     Mostly Cloudy
12:00 Legend Double Dagger 2.9 -3.9 61 1 5 24.1 102.69     LegendNANA
13:00 Legend Double Dagger 3.1 -4.6 57 36 4 24.1 102.66     LegendNANA
14:00 Legend Double Dagger 3.1 -3.9 60 4 3 24.1 102.63     Mostly Cloudy
15:00 Legend Double Dagger 3.1 -3.3 63 5 7 24.1 102.61     LegendNANA
16:00 Legend Double Dagger 2.9 -4.8 57 35 5 24.1 102.59     LegendNANA
17:00 Legend Double Dagger 2.5 -3.6 64 36 2 24.1 102.60     Mostly Cloudy
18:00 Legend Double Dagger 1.4 -2.0 78 22 3 24.1 102.60     LegendNANA
19:00 Legend Double Dagger 1.0 -1.4 84 36 3 24.1 102.65     LegendNANA
20:00 Legend Double Dagger 1.1 -1.6 82 36 1 24.1 102.65     Mostly Cloudy
21:00 Legend Double Dagger -0.7 -1.6 94 25 7 24.1 102.65   -3 LegendNANA
22:00 Legend Double Dagger -0.4 -1.3 94 23 7 24.1 102.66   -3 LegendNANA
23:00 Legend Double Dagger -1.6 -2.4 94 36 1 24.1 102.64   -2 Clear

Notes on Data Quality.

Legend

  • E = Estimated
  • M = Missing
  • NA = Not Available
  • ‡ = Partner data that is not subject to review by the National Climate Archives
Date modified: